Regional Weather Roundup
Issued by NWS

Home | Current Version | Previous Version | Text Only | Print | Product List | Glossary On
Versions: 1 2 3 4 5 6 7 8 9 10 11 12 13 14 15 16 17 18 19 20 21 22 23 24 25 26 27 28 29 30 31 32 33 34 35 36 37 38 39 40 41 42 43 44 45 46 47 48 49 50
000
ASUS46 KPQR 041810
RWROR

OREGON REGIONAL WEATHER ROUNDUP
NATIONAL WEATHER SERVICE PORTLAND OR
1000 AM PST WED MAR 04 2015

NOTE: "FAIR" INDICATES FEW OR NO CLOUDS BELOW 12,000 FEET WITH
NO SIGNIFICANT WEATHER AND/OR OBSTRUCTIONS TO VISIBILITY.

ORZ001>013-041900-
NORTHWEST OREGON


CITY           SKY/WX    TMP DP  RH WIND       PRES   REMARKS
ASTORIA        SUNNY     44  33  65 CALM      30.29R
6HR MIN TEMP:  30; 6HR MAX TEMP:  44;

NEWPORT        SUNNY     48  32  53 E7        30.30R
PORTLAND       SUNNY     41  30  65 NW6       30.31S
6HR MIN TEMP:  30; 6HR MAX TEMP:  41;

VANCOUVER WA   SUNNY     40  30  67 SW7       30.30S
6HR MIN TEMP:  25; 6HR MAX TEMP:  40;

SCAPPOOSE      SUNNY     41  28  60 CALM      30.30R
6HR MIN TEMP:  26; 6HR MAX TEMP:  42;

HILLSBORO      SUNNY     42  28  57 CALM      30.29R
6HR MIN TEMP:  25; 6HR MAX TEMP:  42;

AURORA         SUNNY     43  29  57 E6        30.29S
6HR MIN TEMP:  28; 6HR MAX TEMP:  43;

MCMINNVILLE    SUNNY     43  29  57 CALM      30.30R
6HR MIN TEMP:  27; 6HR MAX TEMP:  43;

SALEM          SUNNY     44  27  51 N7        30.28S
6HR MIN TEMP:  27; 6HR MAX TEMP:  44;

CORVALLIS      SUNNY     43  32  65 SE3       30.29S
EUGENE         SUNNY     42  32  67 NW5       30.28S
6HR MIN TEMP:  26; 6HR MAX TEMP:  42;

$$

ORZ021-028-041900-
SOUTHWEST OREGON


CITY           SKY/WX    TMP DP  RH WIND       PRES   REMARKS
NORTH BEND     SUNNY     48  39  71 CALM      30.25S
6HR MIN TEMP:  32; 6HR MAX TEMP:  48;

BROOKINGS      SUNNY     53  40  61 CALM      30.17R
ROSEBURG       PTSUNNY   36  34  92 S3        30.26F FOG
6HR MIN TEMP:  31; 6HR MAX TEMP:  36;

SEXTON SUMMIT  SUNNY     44  25  47 E5        30.15R
6HR MIN TEMP:  35; 6HR MAX TEMP:  44;

MEDFORD        SUNNY     43  31  62 CALM      30.22S
6HR MIN TEMP:  30; 6HR MAX TEMP:  43;

$$

ORZ014>016-041-041900-
COLUMBIA GORGE


CITY           SKY/WX    TMP DP  RH WIND       PRES   REMARKS
TROUTDALE      SUNNY     43  30  60 NW3       30.29S
6HR MIN TEMP:  29; 6HR MAX TEMP:  43;

THE DALLES     SUNNY     38  25  59 CALM      30.36S
6HR MIN TEMP:  23; 6HR MAX TEMP:  38;

$$

ORZ029>031-041-044-049-050-061>064-502-503-505>511-041900-
EASTERN OREGON


CITY           SKY/WX    TMP DP  RH WIND       PRES   REMARKS
REDMOND        SUNNY     38  17  42 CALM      30.24F
6HR MIN TEMP:  11; 6HR MAX TEMP:  38;

BEND           SUNNY     36  14  41 CALM      30.23F
PRINEVILLE     SUNNY     37  18  44 E5        30.25S WCI  34
KLAMATH FALLS  SUNNY     38  18  44 SE3       30.21S
6HR MIN TEMP:  16; 6HR MAX TEMP:  38;

LAKEVIEW       SUNNY     36  16  44 NE5       30.22S WCI  32
HERMISTON      SUNNY     39  22  50 CALM      30.34R
6HR MIN TEMP:  15; 6HR MAX TEMP:  40;

PENDLETON      SUNNY     41  11  29 CALM      30.29R
6HR MIN TEMP:  22; 6HR MAX TEMP:  41;

JOHN DAY       SUNNY     32  17  55 E3        30.26S
MEACHAM        SUNNY     36  11  35 CALM      30.22S
6HR MIN TEMP:   8; 6HR MAX TEMP:  36;

LA GRANDE      SUNNY     30  10  43 NW3       30.30S
6HR MIN TEMP:  12; 6HR MAX TEMP:  30;

BAKER CITY     SUNNY     32  13  45 VRB3      30.28S
6HR MIN TEMP:   8; 6HR MAX TEMP:  32;

BURNS          SUNNY     31  17  56 CALM      30.26R
6HR MIN TEMP:  11; 6HR MAX TEMP:  31;

ROME             N/A     36  14  40 VRB3      30.23S
6HR MIN TEMP:  11; 6HR MAX TEMP:  36;

ONTARIO        SUNNY     38  15  39 CALM      30.34S
6HR MIN TEMP:  19; 6HR MAX TEMP:  39;

$$


USA.gov is the U.S. government's official web portal to all federal, state and local government web resources and services.